sat.trackr.live / text

‹ back to catalog

STARLINK-34770

NORAD 65036 · 2025-161X

PAYLOAD ACTIVE UNKNOWN

§ Identity

Operator
Country
US
Launch date
2025-07-30
Launch site
AFWTR
Launch vehicle
Mass (kg)
RCS (m²)

Purposes: comms

External: N2YO · Heavens-Above · Gunter

§ Orbital elements

Epoch: 2026-09-19T22:30:01.365984Z

Period
93.85 min
Inclination
53.1582°
Eccentricity
0.0001356
Mean motion
15.34404697 rev/d
Perigee alt
461.8 km
Apogee alt
463.6 km
Semi-major
6,840.8 km
B*
3.4995e-4
RAAN
110.2693°
Arg perigee
107.1608°
Mean anomaly
252.9544°
Rev number
6,399

§ Raw data

STARLINK-347701 65036U 25161X   26262.93751581  .00011467  00000+0  34995-3 0  99932 65036  53.1582 110.2693 0001356 107.1608 252.9544 15.34404697 63997

JSON: /api/v1/satellites/65036 · /tle

For live sub-satellite position, see the globe view (requires WebGL).

§ Visibility from observer

Set your observer location to see the next 7 days of passes ≥ 10°. The values pass through the URL so the page stays shareable.

No JS? Fill the form by hand. The geolocation button needs JavaScript.